Regional Weather Roundup
Issued by NWS

Home | Current Version | Previous Version | Text Only | Print | Product List | Glossary On
Versions: 1 2 3 4 5 6 7 8 9 10 11 12 13 14 15 16 17 18 19 20 21 22 23 24 25 26 27 28 29 30 31 32 33 34 35 36 37 38 39 40 41 42 43 44 45 46 47 48 49 50
000
ASUS46 KPQR 220510
RWROR

OREGON REGIONAL WEATHER ROUNDUP
NATIONAL WEATHER SERVICE PORTLAND OR
1000 PM PDT TUE OCT 21 2014

NOTE: "FAIR" INDICATES FEW OR NO CLOUDS BELOW 12,000 FEET WITH
NO SIGNIFICANT WEATHER AND/OR OBSTRUCTIONS TO VISIBILITY.

ORZ001>013-220600-
NORTHWEST OREGON


CITY           SKY/WX    TMP DP  RH WIND       PRES   REMARKS
ASTORIA        LGT RAIN  57  51  80 S9G20     29.75F
NEWPORT        LGT RAIN  55  50  82 S15       29.85F
PORTLAND       CLOUDY    57  51  80 E13       29.87F
VANCOUVER WA   CLOUDY    58  50  75 SE13      29.86F
SCAPPOOSE      CLOUDY    57  51  80 SW3       29.85F
HILLSBORO      CLOUDY    57  49  74 S6        29.85F
AURORA         CLOUDY    60  44  55 S15G21    29.87F
MCMINNVILLE    CLOUDY    59  49  69 S12       29.87F
SALEM          LGT RAIN  57  48  72 S10       29.86F
CORVALLIS      CLOUDY    55  52  88 S9        29.89F
EUGENE         LGT RAIN  56  50  80 S10       29.91F
$$

ORZ021-028-220600-
SOUTHWEST OREGON


CITY           SKY/WX    TMP DP  RH WIND       PRES   REMARKS
NORTH BEND     CLOUDY    57  54  88 SE12      29.89F
BROOKINGS      LGT RAIN  56  52  86 SE6       30.00F
ROSEBURG       CLOUDY    57  50  77 S5        29.93F
SEXTON SUMMIT  CLOUDY    43  43 100 S17       29.98S FOG
MEDFORD        LGT RAIN  55  47  74 CALM      30.00R
$$

ORZ009-041-220600-
COLUMBIA GORGE


CITY           SKY/WX    TMP DP  RH WIND       PRES   REMARKS
TROUTDALE      LGT RAIN  56  50  80 SE5       29.87F
THE DALLES     CLOUDY    51  46  83 CALM      29.92F
$$

ORZ029>031-042>050-061>064-220600-
EASTERN OREGON


CITY           SKY/WX    TMP DP  RH WIND       PRES   REMARKS
REDMOND        MOCLDY    44  35  70 S8        29.97S
BEND           MOCLDY    45  34  65 S5        29.99S
KLAMATH FALLS  MOCLDY    40  36  86 SE6       30.05S
LAKEVIEW       CLEAR     27  21  80 N3        30.09S
HERMISTON      CLEAR     47  40  76 S7        29.94F
PENDLETON      CLEAR     48  39  71 SE7       29.95F
JOHN DAY       CLEAR     44  35  70 E6        30.03S
MEACHAM        CLEAR     31  30  96 CALM      30.00S
LA GRANDE      CLEAR     36  25  64 CALM      30.00S
BAKER CITY     CLEAR     36  29  75 SE7       30.02S WCI  30
BURNS          PTCLDY    30  26  85 W6        30.06S WCI  24
ROME             N/A     42  31  64 SE10      30.05S
ONTARIO        CLEAR     48  35  60 SE3       30.05R
$$



USA.gov is the U.S. government's official web portal to all federal, state and local government web resources and services.